Wind_Speed
19 19 21 17 17 6 13 24 19 14 5 6 12 5 16 10 17 16 14 14 13 14 14 17 17 13 12 16 16 10 10 7 3 2 3 1 1 4 7 8 9 11 14 10
22 27 20 19 12 13 9 14 12 1 5 7 4 9 18 10 17 15 13 15 13 13 17 16 15 12 15 11 17 15 10 4 7 3 1 0 2 5 6 7 8 9 10 12
27 24 19 19 18 14 13 16 5 3 15 12 13 11 10 13 14 11 12 15 15 15 21 17 12 13 17 8 20 20 13 8 7 6 4 4 2 2 2 4 7 7 9 10
28 24 25 18 22 14 14 12 14 17 14 22 13 20 8 14 10 10 14 16 18 18 20 20 12 20 6 12 9 11 10 12 10 9 7 8 8 6 6 3 4 6 7 9
29 27 26 25 26 21 21 19 6 13 19 23 26 8 8 14 10 18 24 23 18 22 26 24 22 11 9 10 4 3 13 13 12 13 15 11 12 12 13 10 9 12 12 9
25 25 28 27 24 21 18 21 21 19 18 20 9 13 6 10 36 10 22 21 20 23 23 20 23 15 16 11 6 10 11 9 17 19 20 13 12 21 18 9 10 12 22 20
26 27 25 23 28 23 24 22 22 15 17 8 3 1 7 4 33 23 19 16 21 23 25 24 21 16 15 17 11 15 16 18 11 16 17 15 19 15 20 15 15 17 19 23
29 27 27 22 24 22 26 27 25 16 14 5 8 9 5 8 13 17 15 16 20 25 22 22 19 16 19 18 16 14 13 17 11 11 11 11 13 11 12 16 16 15 18 21
29 30 22 27 24 25 26 29 26 24 27 27 24 8 9 15 7 8 11 16 19 23 21 24 17 18 16 17 15 15 13 14 12 13 11 7 3 0 2 7 11 12 14 17
31 29 26 23 23 25 26 24 25 24 17 18 22 14 11 9 8 10 6 14 19 22 21 24 18 12 8 9 10 12 12 13 11 11 10 6 5 4 6 9 11 13 15 20
30 30 27 18 28 23 23 28 27 26 22 13 14 5 17 33 22 21 13 17 21 27 26 23 16 10 11 7 4 9 10 9 8 8 7 6 8 9 12 14 16 19 21 25
27 27 30 26 22 23 22 25 26 27 21 26 29 7 20 17 17 10 15 22 20 24 21 21 18 10 12 6 5 7 8 8 7 6 7 10 12 14 16 19 21 24 24 24
17 24 28 32 27 23 24 24 29 29 25 29 23 7 9 14 2 18 23 27 18 23 22 23 16 11 11 10 8 8 9 9 8 9 10 12 14 17 20 23 23 21 19 18
18 19 25 29 24 24 28 24 26 29 28 25 29 15 16 14 19 21 29 33 21 22 22 20 15 13 10 11 10 9 9 9 10 11 10 12 16 20 22 20 17 16 16 15
19 24 22 24 25 27 23 25 25 26 32 29 27 15 18 15 14 30 25 23 19 24 20 15 16 11 14 12 11 9 10 11 10 11 13 16 20 22 20 17 16 15 15 14
16 22 20 23 25 25 25 21 21 28 25 28 29 29 21 7 35 19 15 15 15 17 17 17 15 13 14 14 12 11 12 12 12 13 15 19 20 19 16 15 14 13 12 12
17 18 20 24 20 24 28 27 23 22 21 23 26 27 21 14 16 26 23 17 14 13 16 17 15 13 15 15 13 12 13 13 13 15 18 19 18 14 13 12 11 11 11 11
11 11 14 21 20 17 26 23 25 27 26 23 25 23 20 20 24 22 20 11 14 16 19 18 15 14 14 15 15 14 13 13 14 17 19 18 14 12 11 10 10 11 11 11
18 20 21 18 20 21 22 21 22 24 24 22 26 23 21 20 21 29 5 22 14 21 22 17 16 13 14 15 13 13 13 14 16 18 18 15 13 11 10 9 9 9 9 10
23 25 24 22 21 16 22 17 17 20 22 12 20 24 23 23 18 18 30 15 22 23 19 18 16 13 13 12 13 13 13 15 17 18 16 13 12 11 9 9 8 8 10 10
30 29 27 27 22 22 18 16 13 22 19 17 21 24 25 30 28 26 25 12 15 18 20 16 14 10 10 12 13 13 13 16 17 16 14 13 11 10 9 8 8 9 9 9
23 14 29 30 25 18 15 8 7 14 6 3 7 14 24 24 22 30 25 13 18 21 24 22 19 13 13 14 14 12 14 16 16 14 13 12 11 9 8 7 9 9 8 8
20 26 27 14 10 16 5 14 9 8 12 7 2 8 11 21 31 7 15 23 25 31 22 17 16 13 15 15 12 13 14 15 15 14 12 11 11 9 7 7 9 8 7 10
8 19 23 35 27 17 6 12 16 1 5 6 8 12 17 22 23 14 29 25 25 22 15 15 10 13 15 13 13 13 14 16 14 14 12 10 11 8 6 7 7 8 7 10
22 5 21 28 44 29 29 13 21 11 5 12 10 3 20 26 24 32 31 27 22 16 16 12 6 20 14 13 15 13 15 15 15 13 11 11 9 6 7 9 7 8 8 9
24 21 23 23 20 21 27 15 10 8 11 12 6 8 10 16 16 21 23 22 19 16 16 7 12 13 14 15 15 14 16 16 14 12 11 11 7 5 7 6 8 9 8 8
Wind_Direction
227 231 234 244 261 168 222 215 236 228 226 248 278 240 163 201 192 188 185 201 191 193 190 226 182 187 201 234 269 237 227 225 258 343 40 55 325 42 21 7 11 9 0 2
223 227 233 251 254 272 270 268 256 123 261 255 1 233 230 238 214 199 194 199 202 199 203 215 182 187 199 226 270 266 252 230 239 257 166 87 7 28 27 30 20 9 14 35
224 228 230 249 254 249 260 264 248 279 265 279 271 264 171 181 207 203 208 213 213 204 212 204 179 209 208 308 267 229 260 240 243 264 294 299 313 320 7 1 10 5 1 8
229 233 242 236 249 258 244 277 276 302 288 285 249 285 206 266 216 207 224 216 214 209 227 236 203 191 298 265 64 178 264 250 242 253 261 279 280 263 270 314 349 344 339 338
231 233 238 245 238 240 250 262 268 269 286 285 282 232 141 245 230 209 214 211 214 214 224 239 255 257 266 305 326 209 310 247 250 236 252 262 274 258 266 299 289 288 315 307
238 234 237 241 244 248 249 259 268 273 281 273 328 14 114 181 230 216 178 192 211 207 220 242 258 265 238 271 203 244 339 295 268 276 282 301 281 261 277 282 304 296 304 297
235 237 237 236 241 239 241 248 261 250 255 261 97 113 183 273 244 229 176 184 198 202 218 237 268 263 262 270 258 290 303 323 307 290 293 305 297 278 264 279 307 284 288 289
230 231 232 229 236 240 235 242 252 255 260 184 251 254 232 306 250 189 173 175 181 200 224 247 270 269 269 266 273 299 300 304 298 281 297 306 285 271 269 277 291 283 278 287
236 237 239 227 234 234 243 244 244 268 274 279 256 236 210 175 175 191 157 167 170 195 214 243 263 271 268 266 278 282 293 294 294 293 296 303 302 22 318 295 287 293 290 290
235 254 239 234 222 229 235 240 250 237 254 272 277 219 157 193 146 118 175 168 167 187 198 230 244 259 277 270 269 272 280 288 287 277 287 270 282 297 312 320 309 303 298 292
230 242 252 258 214 222 228 239 252 266 272 277 263 155 192 175 159 138 161 194 181 188 207 227 230 259 266 260 241 259 281 280 270 274 277 276 284 295 303 309 307 305 300 296
223 236 246 250 234 228 232 244 237 248 259 267 280 261 176 212 201 156 186 202 189 187 203 213 225 236 265 261 231 250 258 269 270 274 278 285 298 301 303 302 299 297 296 296
220 234 246 248 237 221 239 237 246 245 247 256 274 160 171 184 129 142 184 209 208 199 202 209 227 232 247 241 239 243 261 273 281 288 292 294 296 295 295 296 298 299 302 302
249 249 233 241 239 239 222 233 240 242 255 246 251 213 187 225 222 190 181 199 202 192 205 219 223 241 235 235 238 250 270 274 280 288 283 289 295 302 306 308 309 309 307 307
237 243 247 245 246 255 259 240 227 240 255 270 269 268 232 231 197 169 188 200 193 195 212 224 227 239 237 232 235 256 277 283 294 295 300 307 310 310 310 310 311 310 309 308
230 239 246 258 250 251 259 254 249 238 237 255 264 270 280 172 174 209 235 220 212 218 225 220 234 235 235 228 238 259 275 279 285 290 301 306 309 305 303 304 303 304 305 305
223 229 234 250 248 246 257 246 250 250 253 243 243 254 264 236 229 219 223 228 232 251 231 230 229 240 229 230 245 262 271 277 281 294 304 307 303 298 297 295 297 298 298 302
242 260 246 244 249 254 250 252 247 247 249 249 252 255 243 248 241 219 216 243 244 241 223 226 226 230 224 236 248 260 264 268 285 297 303 302 297 296 297 298 304 305 310 317
251 251 249 254 252 251 258 251 244 245 246 247 248 250 243 242 200 213 319 247 252 229 211 216 225 224 228 244 257 258 260 277 290 300 304 301 301 301 300 301 302 301 307 311
237 239 239 241 266 259 255 249 250 249 257 252 239 242 235 225 207 173 201 235 204 210 211 209 217 221 240 254 254 253 265 284 296 304 303 299 300 297 294 292 294 308 320 319
231 235 240 233 245 258 267 274 291 254 246 247 248 242 236 218 224 235 213 205 230 221 209 201 209 241 251 250 250 257 276 290 300 303 296 294 291 289 287 294 306 315 321 333
267 244 229 231 233 234 306 278 319 323 41 64 262 224 221 201 194 205 192 201 242 216 198 203 208 227 249 250 252 267 282 293 301 298 291 290 286 284 284 296 314 320 322 323
244 251 236 265 242 238 310 241 3 335 243 65 351 246 286 229 193 83 241 203 213 205 200 207 215 228 241 245 256 273 284 296 301 295 287 287 285 284 291 312 316 318 319 329
289 232 217 231 245 243 268 300 249 216 328 198 351 303 290 273 206 203 220 218 211 206 189 213 214 244 244 247 257 273 287 298 294 289 290 286 281 284 301 316 308 324 322 314
302 205 220 243 237 248 219 297 264 262 161 248 297 243 297 166 159 182 201 207 204 184 180 204 250 256 243 249 266 279 295 299 291 289 285 278 274 285 306 315 324 301 301 304
259 268 202 238 245 238 217 198 244 258 271 292 248 260 226 229 217 218 218 208 191 190 200 189 251 253 247 256 269 284 297 293 288 284 280 276 277 288 298 304 289 294 298 305
Height
3167 3168 3165 3161 3159 3164 3163 3164 3158 3162 3162 3162 3160 3160 3170 3170 3171 3166 3168 3171 3172 3173 3173 3172 3176 3180 3181 3181 3181 3180 3181 3182 3181 3180 3181 3182 3183 3181 3179 3180 3180 3180 3177 3176
3165 3161 3162 3160 3162 3161 3161 3160 3158 3158 3160 3159 3155 3159 3160 3161 3173 3170 3168 3169 3173 3173 3171 3172 3176 3179 3183 3185 3184 3183 3182 3182 3182 3182 3183 3183 3181 3179 3179 3180 3181 3181 3180 3179
3159 3159 3160 3159 3157 3158 3160 3158 3156 3157 3158 3155 3153 3156 3163 3168 3170 3169 3169 3172 3173 3174 3170 3171 3175 3179 3173 3173 3171 3178 3180 3179 3181 3180 3179 3179 3178 3178 3179 3181 3181 3182 3181 3180
3155 3157 3156 3157 3156 3156 3157 3156 3154 3155 3155 3151 3150 3148 3155 3165 3166 3167 3170 3171 3172 3173 3170 3171 3173 3174 3176 3173 3165 3169 3175 3177 3177 3178 3175 3175 3175 3176 3178 3179 3181 3182 3182 3182
3152 3153 3153 3152 3152 3154 3156 3154 3155 3156 3155 3151 3147 3148 3157 3167 3162 3159 3159 3167 3170 3169 3167 3169 3170 3173 3174 3175 3171 3167 3174 3175 3175 3177 3171 3175 3175 3175 3175 3177 3173 3176 3180 3179
3148 3150 3150 3150 3151 3153 3155 3154 3153 3153 3151 3148 3147 3148 3157 3155 3158 3151 3152 3157 3167 3166 3165 3166 3167 3170 3171 3173 3173 3172 3173 3174 3173 3172 3173 3173 3174 3173 3174 3172 3176 3175 3174 3176
3145 3144 3145 3147 3149 3149 3152 3153 3150 3149 3146 3142 3146 3149 3153 3150 3160 3157 3153 3159 3165 3164 3160 3162 3165 3166 3167 3166 3168 3167 3169 3169 3169 3170 3170 3169 3170 3173 3172 3173 3173 3171 3171 3170
3140 3139 3141 3143 3144 3146 3147 3149 3146 3143 3141 3140 3144 3140 3142 3143 3147 3152 3158 3156 3161 3160 3159 3159 3160 3162 3162 3164 3164 3165 3166 3167 3167 3167 3168 3167 3168 3167 3168 3169 3169 3168 3168 3167
3134 3133 3136 3138 3142 3145 3144 3142 3144 3140 3139 3136 3133 3137 3138 3147 3156 3161 3158 3156 3157 3157 3157 3157 3157 3157 3158 3159 3161 3163 3164 3164 3163 3163 3164 3165 3165 3165 3165 3166 3165 3165 3164 3163
3131 3131 3129 3131 3135 3138 3140 3141 3140 3139 3137 3136 3131 3130 3132 3138 3143 3153 3160 3157 3157 3158 3157 3156 3155 3155 3155 3156 3158 3160 3161 3161 3161 3162 3163 3163 3163 3163 3163 3163 3162 3162 3161 3160
3129 3129 3127 3126 3126 3132 3137 3136 3136 3134 3132 3128 3125 3130 3124 3129 3138 3139 3151 3155 3154 3155 3154 3154 3153 3153 3153 3155 3157 3159 3160 3160 3161 3161 3161 3162 3162 3162 3162 3161 3160 3158 3157 3155
3123 3126 3125 3123 3124 3127 3131 3132 3134 3134 3134 3131 3126 3124 3129 3133 3140 3140 3148 3152 3150 3151 3149 3151 3150 3152 3150 3153 3155 3157 3159 3160 3160 3160 3160 3161 3160 3160 3160 3158 3157 3155 3152 3150
3122 3123 3122 3120 3122 3122 3125 3128 3128 3128 3129 3128 3126 3130 3130 3134 3138 3148 3147 3147 3145 3144 3145 3147 3147 3149 3150 3151 3154 3156 3157 3158 3158 3158 3158 3158 3158 3157 3157 3155 3152 3150 3147 3145
3118 3118 3116 3115 3116 3117 3118 3121 3124 3124 3122 3124 3123 3125 3127 3121 3120 3132 3136 3145 3141 3139 3140 3142 3144 3146 3148 3149 3152 3154 3155 3155 3155 3156 3155 3155 3155 3153 3151 3149 3146 3145 3143 3141
3117 3115 3114 3113 3114 3113 3112 3113 3117 3121 3120 3118 3117 3121 3123 3121 3125 3126 3131 3135 3135 3136 3136 3139 3141 3144 3145 3148 3150 3151 3152 3152 3152 3152 3152 3151 3150 3148 3145 3143 3142 3141 3139 3138
3113 3113 3114 3112 3111 3110 3109 3109 3111 3113 3117 3118 3118 3116 3119 3114 3123 3124 3123 3126 3129 3130 3133 3135 3137 3141 3143 3145 3147 3148 3149 3149 3149 3149 3149 3148 3145 3143 3141 3140 3139 3138 3136 3135
3109 3109 3111 3109 3109 3109 3107 3107 3109 3111 3111 3113 3115 3117 3118 3120 3116 3116 3122 3125 3125 3125 3126 3130 3135 3137 3140 3143 3144 3145 3146 3147 3147 3146 3145 3143 3141 3140 3138 3138 3136 3135 3134 3134
3105 3106 3106 3106 3107 3104 3102 3105 3106 3107 3108 3109 3110 3111 3115 3117 3114 3115 3112 3117 3121 3123 3122 3125 3131 3134 3138 3140 3142 3142 3143 3144 3144 3143 3141 3139 3138 3137 3135 3134 3133 3133 3132 3130
3103 3104 3104 3103 3102 3102 3101 3101 3101 3100 3101 3104 3105 3107 3109 3114 3105 3100 3098 3116 3116 3119 3119 3122 3126 3131 3134 3136 3139 3139 3140 3140 3139 3138 3137 3135 3134 3133 3132 3131 3131 3130 3129 3127
3100 3100 3101 3101 3099 3095 3095 3096 3096 3097 3095 3098 3100 3102 3104 3107 3105 3102 3109 3109 3113 3113 3113 3119 3123 3127 3130 3133 3135 3136 3137 3136 3136 3134 3133 3131 3130 3130 3129 3129 3128 3127 3125 3123
3093 3094 3093 3095 3096 3095 3094 3093 3092 3091 3096 3094 3096 3097 3099 3098 3100 3103 3102 3108 3109 3111 3115 3117 3121 3124 3127 3129 3131 3133 3133 3133 3132 3130 3129 3128 3127 3127 3126 3125 3124 3123 3122 3120
3088 3087 3087 3089 3090 3093 3093 3092 3091 3090 3085 3085 3089 3091 3091 3092 3091 3094 3096 3108 3108 3107 3113 3114 3117 3121 3124 3127 3128 3129 3130 3129 3128 3126 3126 3125 3124 3124 3123 3122 3121 3120 3119 3118
3079 3084 3086 3087 3082 3087 3091 3088 3084 3084 3086 3081 3087 3085 3089 3086 3079 3082 3092 3099 3105 3109 3107 3112 3117 3120 3123 3125 3126 3126 3126 3125 3124 3123 3122 3122 3122 3121 3120 3119 3118 3116 3115 3114
3075 3077 3077 3082 3079 3084 3080 3086 3083 3082 3081 3083 3081 3087 3083 3081 3080 3092 3099 3099 3101 3104 3104 3111 3114 3119 3121 3122 3123 3124 3123 3121 3120 3120 3119 3119 3119 3118 3116 3115 3114 3113 3114 3114
3075 3071 3074 3074 3073 3076 3072 3077 3083 3084 3079 3082 3083 3085 3076 3059 3079 3083 3091 3096 3096 3100 3104 3110 3113 3118 3118 3119 3121 3121 3120 3118 3117 3116 3116 3116 3116 3114 3113 3112 3112 3113 3114 3113
3073 3076 3055 3070 3073 3071 3074 3074 3079 3080 3081 3082 3085 3086 3087 3079 3075 3080 3087 3092 3096 3100 3105 3108 3114 3115 3115 3116 3117 3117 3116 3116 3115 3114 3113 3112 3111 3111 3111 3110 3111 3111 3111 3111